{"data":{"norad_id":48211,"epoch":"2026-09-19T09:16:18.811776Z","epoch_age_seconds":114344,"freshness":"FRESH","line1":"1 48211U 21031B   26262.38632884  .00000153  00000+0  37817-3 0  9990","line2":"2 48211  87.8897 270.9162 0001851  69.4357 290.6972 13.14504244260664","mean_motion":13.14504244,"eccentricity":0.0001851,"inclination_deg":87.8897,"raan_deg":270.9162,"arg_perigee_deg":69.4357,"mean_anomaly_deg":290.6972,"bstar":0.00037817,"rev_number":26066,"period_min":109.54700272539,"perigee_km":1204.3810166891,"apogee_km":1207.1885845397,"semimajor_km":7583.9218006144,"source":"CELESTRAK","updated_at":"2026-09-20T09:00:44.592105Z"}}